Tracking 28790 objects as of 18-Apr-2024
HD Live streaming from Space Station
objects crossing your sky now

ESSA 1 (OT-3)

Track ESSA 1 (OT-3) now!
10-day predictions
ESSA 1 (OT-3) is classified as:


NORAD ID: 1982
Int'l Code: 1966-008A
Perigee: 683.0 km
Apogee: 798.4 km
Inclination: 97.9 °
Period: 99.5 minutes
Semi major axis: 7111 km
RCS: 0.7257 m2 (medium)
Launch date: February 3, 1966
Source: United States (US)
Launch site: AIR FORCE EASTERN TEST RANGE (AFETR)
Your satellite tracking list
Your tracking list is empty




NASA's NSSDC Master Catalog

Two Line Element Set (TLE):
1  1982U 66008A   24109.80564242  .00000669  00000-0  18570-3 0  9992
2  1982  97.9136 185.0294 0081150  21.5475 338.9102 14.47582005 64467
Source of the keplerian elements: AFSPC